Location: Kra?nica
(53.4833°N, 14.6167°E)
Time: 21:13:29
(UTC+00:00)

IDEFIX/ARIANE 42P - Pass Details

Date: 23 May 2024
Orbit: 783 x 799 km, 98.5° (Epoch: 20 June)

Event Time Altitude Azimuth Distance (km) Brightness Sun altitude
Rises 01:15:55 0° 14° (NNE) 3,319 7.4 -10.1°
Reaches altitude 10° 01:18:15 10° 13° (NNE) 2,386 6.4 -10.0°
Maximum altitude 01:23:31 76° 289° (WNW) 830 2.6 -9.5°
Enters shadow 01:28:35 11° 205° (SSW) 2,303 4.3 -9.1°
